This is the latest recevied weather packets stored in our database for station/object SQ9SMC-13. If no packets are shown the sender has not sent any weather packets the latest 10 day(s).
| Time | Temp. | Humidity | Pressure | Rain* | Wind** | Luminosity | Snow |
|---|---|---|---|---|---|---|---|
| 1777617003 | 11.67° C | 59% | 1028.6 hPa | 0 mm | - | 157 W/m² | - |
| 1777616702 | 11.67° C | 61% | 1028.5 hPa | 0 mm | - | 157 W/m² | - |
| 1777616404 | 11.11° C | 60% | 1028.5 hPa | 0 mm | - | 146 W/m² | - |
| 1777616103 | 11.11° C | 61% | 1028.5 hPa | 0 mm | - | 138 W/m² | - |
| 1777615804 | 11.11° C | 62% | 1028.5 hPa | 0 mm | - | 145 W/m² | - |
| 1777615503 | 11.11° C | 61% | 1028.5 hPa | 0 mm | - | 133 W/m² | - |
| 1777615206 | 11.11° C | 63% | 1028.3 hPa | 0 mm | - | 125 W/m² | - |
| 1777614903 | 10.56° C | 63% | 1028.3 hPa | 0 mm | - | 119 W/m² | - |
| 1777614603 | 10.56° C | 64% | 1028.4 hPa | 0 mm | - | 112 W/m² | - |
| 1777614304 | 10.56° C | 64% | 1028.4 hPa | 0 mm | - | 97 W/m² | - |
| 1777614005 | 10° C | 64% | 1028.4 hPa | 0 mm | - | 94 W/m² | - |
| 1777613703 | 10° C | 64% | 1028.4 hPa | 0 mm | - | 91 W/m² | - |
| 1777613402 | 10° C | 64% | 1028.4 hPa | 0 mm | - | 83 W/m² | - |
| 1777613105 | 10° C | 64% | 1028.5 hPa | 0 mm | - | 76 W/m² | - |
| 1777612803 | 10° C | 64% | 1028.5 hPa | 0 mm | - | 75 W/m² | - |
| 1777612503 | 9.44° C | 63% | 1028.4 hPa | 0 mm | - | 70 W/m² | - |
| 1777612202 | 9.44° C | 64% | 1028.5 hPa | 0 mm | - | 63 W/m² | - |
| 1777611903 | 9.44° C | 65% | 1028.4 hPa | 0 mm | - | 60 W/m² | - |
| 1777611604 | 9.44° C | 65% | 1028.5 hPa | 0 mm | - | 57 W/m² | - |
| 1777611303 | 8.89° C | 65% | 1028.6 hPa | 0 mm | - | 57 W/m² | - |
| 1777611003 | 8.89° C | 67% | 1028.4 hPa | 0 mm | - | 58 W/m² | - |
| 1777610703 | 8.89° C | 68% | 1028.5 hPa | 0 mm | - | 46 W/m² | - |
| 1777610404 | 8.33° C | 68% | 1028.3 hPa | 0 mm | - | 38 W/m² | - |
| 1777610103 | 8.33° C | 67% | 1028.5 hPa | 0 mm | - | 34 W/m² | - |
| 1777609803 | 8.33° C | 69% | 1028.3 hPa | 0 mm | - | 32 W/m² | - |
* Rain latest hour (hover to see other rain measurements)
** Current wind speed in m/s (hover to see current wind gust speed)